Location: Demmingen
(48.6757°N, 10.4375°E)
Time: 20:13:31
(UTC+00:00)

SL-16 R/B - Pass Details

Date: 10 August 2024
Orbit: 842 x 845 km, 71.0° (Epoch: 10 September)

Event Time Altitude Azimuth Distance (km) Brightness Sun altitude
Exits shadow 00:56:54 24° 267° (W) 1,684 3.5 -22.6°
Maximum altitude 00:59:20 34° 311° (NW) 1,369 3.4 -22.4°
Drops below altitude 10° 01:04:28 10° 15° (NNE) 2,476 5.7 -22.1°
Sets 01:07:11 0° 25° (NNE) 3,415 6.9 -21.9°
